This is the latest recevied weather packets stored in our database for station/object IU7LMH-13. If no packets are shown the sender has not sent any weather packets the latest 10 day(s).
| Time | Temp. | Humidity | Pressure | Rain* | Wind** | Luminosity | Snow |
|---|---|---|---|---|---|---|---|
| 1778008180 | 17.22° C | 89% | 1015.6 hPa | 0 mm | - | - | - |
| 1778007458 | 17.22° C | 89% | 1015.5 hPa | 0 mm | - | - | - |
| 1778006500 | 17.22° C | 89% | 1015.6 hPa | 0 mm | - | - | - |
| 1778004343 | 17.22° C | 88% | 1015.5 hPa | 0 mm | - | - | - |
| 1778002899 | 17.78° C | 88% | 1015.4 hPa | 0 mm | - | - | - |
| 1778002659 | 17.78° C | 87% | 1015.4 hPa | 0 mm | - | - | - |
| 1778002178 | 17.78° C | 87% | 1015.3 hPa | 0 mm | - | - | - |
| 1778000619 | 17.78° C | 85% | 1015.4 hPa | 0 mm | - | - | - |
| 1777999899 | 17.78° C | 84% | 1015.3 hPa | 0 mm | - | - | - |
| 1777999178 | 17.78° C | 84% | 1015.5 hPa | 0 mm | - | - | - |
| 1777998099 | 18.33° C | 83% | 1015.5 hPa | 0 mm | - | - | - |
| 1777997380 | 18.33° C | 80% | 1015.7 hPa | 0 mm | - | - | - |
| 1777996178 | 18.89° C | 78% | 1015.8 hPa | 0 mm | - | - | - |
| 1777995817 | 18.89° C | 77% | 1015.8 hPa | 0 mm | - | - | - |
| 1777994498 | 19.44° C | 77% | 1016 hPa | 0 mm | - | - | - |
| 1777994146 | 19.44° C | 74% | 1016.1 hPa | 0 mm | - | - | - |
| 1777993898 | 19.44° C | 73% | 1015.9 hPa | 0 mm | - | - | - |
| 1777993417 | 20° C | 72% | 1016.1 hPa | 0 mm | - | - | - |
| 1777993297 | 20° C | 70% | 1015.9 hPa | 0 mm | - | - | - |
| 1777993178 | 20° C | 70% | 1016.1 hPa | 0 mm | - | - | - |
| 1777992577 | 20° C | 69% | 1016 hPa | 0 mm | - | - | - |
| 1777991978 | 19.44° C | 67% | 1015.9 hPa | 0 mm | - | - | - |
| 1777991619 | 19.44° C | 67% | 1016.1 hPa | 0 mm | - | - | - |
| 1777991499 | 19.44° C | 67% | 1016 hPa | 0 mm | - | - | - |
| 1777991259 | 19.44° C | 69% | 1016.1 hPa | 0 mm | - | - | - |
* Rain latest hour (hover to see other rain measurements)
** Current wind speed in m/s (hover to see current wind gust speed)